Weather History for Delta, CO

Change the Weather History Date:

Sunday, August 25, 2013

  Actual Average (KMTJ) Record (KMTJ)
Temperature  
Mean Temperature 68 °F 69 °F  
Max Temperature 75 °F 84 °F 95 °F (2007)
Min Temperature 62 °F 54 °F 48 °F (2002)
Degree Days  
Heating Degree Days 0 0  
Month to date heating degree days 0  
Since 1 June heating degree days 39  
Since 1 July heating degree days 0  
Cooling Degree Days 4 4  
Month to date cooling degree days 161  
Year to date cooling degree days 583  
Since 1 June cooling degree days 566  
Growing Degree Days 18 (Base 50)    
Moisture  
Dew Point 59 °F    
Average Humidity 73    
Maximum Humidity 94    
Minimum Humidity 56    
Precipitation  
Precipitation 0.00 in 0.03 in 0.13 in (2013)
Month to date precipitation 0.98  
Year to date precipitation 7.05  
Sea Level Pressure  
Sea Level Pressure 30.27 in    
Wind  
Wind Speed 3 mph (SSW)    
Max Wind Speed 17 mph    
Max Gust Speed 28 mph    
Visibility 7 miles    
Events      
T = Trace of Precipitation, MM = Missing Value Source: NWS Daily Summary

Daily Weather History Graph

Daily Weather History Graph

Search for Another Location

Airport:

Trip Planner

Search our weather history database for the weather conditions in past years. The results will help you decide how hot, cold, wet, or windy it might be!

Date:

Astronomy

Aug. 25, 2013 Rise Set
Actual Time 6:35 AM MDT 7:52 PM MDT
Civil Twilight 6:07 AM MDT 8:20 PM MDT
Nautical Twilight 5:34 AM MDT 8:53 PM MDT
Astronomical Twilight 4:59 AM MDT 9:27 PM MDT
Moon 10:29 PM MDT (8/25) 11:36 AM MDT (8/25)
Length of Visible Light 14h 12m
Length of Day
13h 17m
Waning Gibbous, 75% of the Moon is Illuminated
Aug 25
Waning Gibbous
Aug 28
Last Quarter
Sep 5
New
Sep 12
First Quarter
Sep 19
Full

Hourly Weather History & Observations

Time (MDT) Temp. Dew Point Humidity Pressure Visibility Wind Dir Wind Speed Gust Speed Precip Events Conditions
12:15 AM 68.5 °F 55.6 °F 63% 30.22 in 10.0 mi Calm Calm - N/A   Mostly Cloudy
12:35 AM 67.6 °F 56.3 °F 67% 30.22 in 10.0 mi Calm Calm - N/A   Scattered Clouds
12:55 AM 67.5 °F 55.6 °F 66% 30.22 in 10.0 mi ESE 3.5 mph - N/A   Scattered Clouds
1:15 AM 67.1 °F 55.6 °F 66% 30.23 in 10.0 mi Calm Calm - N/A   Mostly Cloudy
1:35 AM 66.6 °F 58.3 °F 75% 30.25 in 7.0 mi West 9.2 mph - N/A   Overcast
1:55 AM 65.7 °F 58.8 °F 79% 30.25 in 7.0 mi WNW 8.1 mph - N/A   Overcast
2:15 AM 66.9 °F 57.0 °F 70% 30.25 in 7.0 mi NNW 5.8 mph - N/A   Overcast
2:35 AM 67.1 °F 58.1 °F 73% 30.25 in 7.0 mi ESE 6.9 mph - N/A   Overcast
2:55 AM 64.9 °F 59.0 °F 81% 30.26 in 7.0 mi East 4.6 mph - N/A   Overcast
3:15 AM 64.9 °F 59.0 °F 81% 30.25 in 7.0 mi Calm Calm - N/A   Overcast
3:35 AM 64.6 °F 59.4 °F 83% 30.26 in 7.0 mi Calm Calm - N/A   Overcast
3:55 AM 64.6 °F 59.0 °F 82% 30.26 in 7.0 mi SSE 3.5 mph - N/A   Overcast
4:15 AM 64.9 °F 58.5 °F 79% 30.26 in 7.0 mi South 4.6 mph - N/A   Overcast
4:35 AM 64.9 °F 58.3 °F 79% 30.26 in 7.0 mi Calm Calm - N/A   Overcast
4:55 AM 64.9 °F 58.5 °F 79% 30.27 in 7.0 mi Calm Calm - N/A   Overcast
5:15 AM 64.6 °F 58.5 °F 80% 30.27 in 7.0 mi Calm Calm - N/A   Overcast
5:35 AM 64.2 °F 58.1 °F 80% 30.27 in 7.0 mi NW 3.5 mph - N/A   Mostly Cloudy
5:55 AM 64.0 °F 57.7 °F 80% 30.28 in 7.0 mi Calm Calm - N/A   Mostly Cloudy
6:15 AM 63.9 °F 57.4 °F 79% 30.28 in 7.0 mi Calm Calm - N/A   Scattered Clouds
6:35 AM 63.7 °F 56.7 °F 78% 30.28 in 7.0 mi NE 5.8 mph - N/A   Scattered Clouds
6:55 AM 65.3 °F 55.6 °F 71% 30.27 in 5.0 mi ENE 5.8 mph - N/A   Scattered Clouds
7:15 AM 64.9 °F 57.2 °F 76% 30.28 in 7.0 mi ESE 3.5 mph - N/A   Mostly Cloudy
7:35 AM 64.4 °F 58.8 °F 82% 30.28 in 7.0 mi ESE 5.8 mph - N/A   Overcast
7:55 AM 64.4 °F 59.0 °F 83% 30.28 in 5.0 mi ESE 4.6 mph - N/A   Overcast
8:15 AM 64.8 °F 58.6 °F 81% 30.29 in 7.0 mi Calm Calm - N/A   Overcast
8:35 AM 65.5 °F 58.5 °F 78% 30.29 in 7.0 mi Calm Calm - N/A   Overcast
8:55 AM 66.6 °F 58.6 °F 76% 30.29 in 10.0 mi Calm Calm - N/A   Mostly Cloudy
9:15 AM 67.8 °F 58.1 °F 71% 30.29 in 7.0 mi Calm Calm - N/A   Mostly Cloudy
9:35 AM 69.1 °F 57.6 °F 67% 30.30 in 7.0 mi ESE 3.5 mph - N/A   Mostly Cloudy
9:55 AM 70.2 °F 57.6 °F 64% 30.30 in 7.0 mi Calm Calm - N/A   Scattered Clouds
10:15 AM 70.3 °F 56.5 °F 61% 30.30 in 7.0 mi Calm Calm - N/A   Mostly Cloudy
10:35 AM 71.2 °F 56.8 °F 60% 30.30 in 7.0 mi Calm Calm - N/A   Mostly Cloudy
10:55 AM 72.0 °F 56.8 °F 59% 30.30 in 7.0 mi South 4.6 mph - N/A   Mostly Cloudy
11:15 AM 71.8 °F 57.7 °F 61% 30.30 in 5.0 mi SSE 3.5 mph - N/A   Mostly Cloudy
11:35 AM 71.6 °F 58.6 °F 64% 30.30 in 7.0 mi SSW 4.6 mph - N/A   Scattered Clouds
11:55 AM 71.4 °F 59.4 °F 66% 30.31 in 5.0 mi SSW 4.6 mph - N/A   Mostly Cloudy
12:15 PM 70.2 °F 58.5 °F 66% 30.30 in 5.0 mi Calm Calm - N/A   Overcast
12:35 PM 70.7 °F 57.2 °F 62% 30.30 in 7.0 mi Calm Calm - N/A   Overcast
12:55 PM 71.4 °F 57.6 °F 62% 30.31 in 4.0 mi Calm Calm - N/A   Mostly Cloudy
1:15 PM 71.4 °F 57.4 °F 61% 30.30 in 7.0 mi NW 3.5 mph - N/A   Overcast
1:35 PM 71.6 °F 56.8 °F 60% 30.30 in 5.0 mi North 3.5 mph - N/A   Mostly Cloudy
1:55 PM 71.8 °F 57.4 °F 60% 30.29 in 7.0 mi ENE 3.5 mph - N/A   Overcast
2:15 PM 72.9 °F 57.6 °F 59% 30.28 in 10.0 mi Calm Calm - N/A   Overcast
2:35 PM 73.0 °F 58.1 °F 59% 30.27 in 7.0 mi Calm Calm - N/A   Overcast
2:55 PM 73.8 °F 58.3 °F 58% 30.26 in 10.0 mi Calm Calm - N/A   Overcast
3:15 PM 75.0 °F 58.3 °F 56% 30.26 in 7.0 mi SW 6.9 mph - N/A   Mostly Cloudy
3:35 PM 74.1 °F 57.6 °F 56% 30.25 in 7.0 mi WSW 4.6 mph - N/A   Overcast
3:55 PM 74.3 °F 59.7 °F 60% 30.25 in 7.0 mi WSW 10.4 mph - N/A   Overcast
4:15 PM 73.4 °F 59.4 °F 61% 30.25 in 7.0 mi SW 10.4 mph - N/A   Overcast
4:35 PM 72.9 °F 59.0 °F 62% 30.24 in 7.0 mi West 12.7 mph - N/A   Mostly Cloudy
4:55 PM 72.0 °F 59.5 °F 65% 30.25 in 7.0 mi WSW 9.2 mph - N/A   Overcast
5:15 PM 72.3 °F 59.2 °F 63% 30.23 in 10.0 mi West 8.1 mph - N/A   Overcast
5:35 PM 71.6 °F 60.1 °F 67% 30.23 in 10.0 mi SW 10.4 mph - N/A   Overcast
5:55 PM 70.9 °F 59.4 °F 67% 30.23 in 7.0 mi WSW 9.2 mph - N/A   Overcast
6:15 PM 70.7 °F 59.2 °F 67% 30.23 in 10.0 mi WSW 8.1 mph - N/A   Overcast
6:35 PM 69.8 °F 59.2 °F 69% 30.23 in 10.0 mi SW 8.1 mph - N/A   Overcast
6:55 PM 69.3 °F 59.0 °F 70% 30.23 in 7.0 mi WSW 6.9 mph - N/A   Overcast
7:15 PM 68.0 °F 59.2 °F 73% 30.24 in 7.0 mi WSW 9.2 mph - N/A   Overcast
7:35 PM 66.6 °F 59.4 °F 78% 30.25 in 10.0 mi West 17.3 mph 27.6 mph N/A   Overcast
7:55 PM 67.8 °F 58.5 °F 72% 30.26 in 7.0 mi WNW 12.7 mph - N/A   Overcast
8:15 PM 66.4 °F 60.1 °F 80% 30.27 in 5.0 mi WNW 9.2 mph - N/A   Overcast
8:35 PM 66.7 °F 60.4 °F 80% 30.28 in 7.0 mi NNE 4.6 mph - N/A   Mostly Cloudy
8:55 PM 65.3 °F 61.0 °F 86% 30.29 in 7.0 mi NE 3.5 mph - N/A   Mostly Cloudy
9:15 PM 64.6 °F 61.2 °F 89% 30.30 in 7.0 mi East 4.6 mph - N/A   Mostly Cloudy
9:35 PM 63.7 °F 61.3 °F 92% 30.30 in 7.0 mi East 4.6 mph - N/A   Scattered Clouds
9:55 PM 63.0 °F 61.0 °F 93% 30.30 in 7.0 mi Calm Calm - N/A   Scattered Clouds
10:15 PM 62.6 °F 61.0 °F 94% 30.30 in 7.0 mi Calm Calm - N/A   Scattered Clouds
10:35 PM 62.6 °F 61.0 °F 94% 30.30 in 7.0 mi Calm Calm - N/A   Mostly Cloudy
10:55 PM 62.6 °F 61.0 °F 94% 30.31 in 5.0 mi Calm Calm - N/A   Mostly Cloudy
11:15 PM 62.6 °F 60.8 °F 94% 30.32 in 7.0 mi Calm Calm - N/A   Mostly Cloudy
11:35 PM 62.6 °F 61.0 °F 94% 30.31 in 7.0 mi NE 3.5 mph - N/A   Overcast
11:55 PM 62.8 °F 61.2 °F 94% 30.32 in 7.0 mi ENE 3.5 mph - N/A   Overcast